This is the latest recevied weather packets stored in our database for station/object ALAKES. If no packets are shown the sender has not sent any weather packets the latest 10 day(s).
| Time | Temp. | Humidity | Pressure | Rain* | Wind** | Luminosity | Snow |
|---|---|---|---|---|---|---|---|
| 1787618073 | 15.56° C | 37% | - | 0 mm | - | - | - |
| 1787617454 | 15.56° C | 38% | - | 0 mm | - | - | - |
| 1787616828 | 15.56° C | 37% | - | 0 mm | - | - | - |
| 1787616194 | 15.56° C | 37% | - | 0 mm | - | - | - |
| 1787615560 | 16.67° C | 36% | - | 0 mm | - | - | - |
| 1787614918 | 17.22° C | 35% | - | 0 mm | - | - | - |
| 1787614280 | 17.22° C | 35% | - | 0 mm | - | - | - |
| 1787613630 | 17.22° C | 35% | - | 0 mm | - | - | - |
| 1787613026 | 17.22° C | 35% | - | 0 mm | - | - | - |
| 1787612980 | 17.22° C | 35% | - | 0 mm | - | - | - |
| 1787612366 | 17.22° C | 34% | - | 0 mm | - | - | - |
| 1787611744 | 17.22° C | 33% | - | 0 mm | - | - | - |
| 1787611124 | 17.22° C | 33% | - | 0 mm | - | - | - |
| 1787610499 | 18.89° C | 30% | - | 0 mm | - | - | - |
| 1787609867 | 18.89° C | 25% | - | 0 mm | - | - | - |
| 1787609245 | 18.89° C | 28% | - | 0 mm | - | - | - |
| 1787608611 | 18.33° C | 29% | - | 0 mm | - | - | - |
| 1787607984 | 17.22° C | 27% | - | 0 mm | - | - | - |
| 1787607358 | 18.33° C | 30% | - | 0 mm | - | - | - |
| 1787606705 | 18.33° C | 24% | - | 0 mm | - | - | - |
| 1787606080 | 17.78° C | 24% | - | 0 mm | - | - | - |
| 1787605456 | 18.33° C | 24% | - | 0 mm | - | - | - |
| 1787604826 | 18.33° C | 24% | - | 0 mm | - | - | - |
| 1787604230 | 18.89° C | 23% | - | 0 mm | - | - | - |
| 1787604192 | 18.89° C | 23% | - | 0 mm | - | - | - |
* Rain latest 24 hours (hover to see other rain measurements)
** Current wind speed in m/s (hover to see current wind gust speed)